Location: Poughquag
(41.6090°N, 73.6820°W)
Time: 16:37:16
(UTC-04:00)

X-37B - Visible Passes

Search period start: 25 September 2020 00:00
Search period end: 05 October 2020 00:00
Orbit: 386 x 387 km, 45.0° (Epoch: 18 September)

Date Brightness Start Highest point End Pass type
(mag) Time Alt. Az. Time Alt. Az. Time Alt. Az.
25 Sep 2.3 05:13:47 22° S 05:13:47 22° S 05:15:26 10° SSE visible
30 Sep 2.9 20:05:37 10° S 20:06:26 14° S 20:06:26 14° S visible
01 Oct 3.0 19:09:07 10° SSE 19:09:35 10° SE 19:10:04 10° SE visible
01 Oct 3.2 20:42:35 10° SW 20:43:21 16° SW 20:43:21 16° SW visible
02 Oct 1.4 19:44:20 10° SW 19:47:13 33° SSE 19:47:47 30° SE visible
03 Oct 1.4 20:21:57 10° WSW 20:24:23 49° WSW 20:24:23 49° WSW visible
04 Oct 0.7 19:23:27 10° SW 19:26:34 58° SSE 19:28:36 19° E visible
04 Oct 3.8 21:00:11 10° W 21:00:52 15° W 21:00:52 15° W visible
